Regional Weather Roundup
Issued by NWS Cleveland, OH

Home | Current Version | Previous Version | Graphics & Text | Print | Product List | Glossary On
Versions: 1 2 3 4 5 6 7 8 9 10 11 12 13 14 15 16 17 18 19 20 21 22 23 24 25 26 27 28 29 30 31 32 33 34 35 36 37 38 39 40 41 42 43 44 45 46 47 48 49 50
000
ASUS41 KCLE 221210
RWRCLE
OHIO REGIONAL WEATHER ROUNDUP
NATIONAL WEATHER SERVICE CLEVELAND, OH
800 AM EDT TUE JUL 22 2014

NOTE: "FAIR" INDICATES FEW OR NO CLOUDS BELOW 12,000 FEET WITH NO
SIGNIFICANT WEATHER AND/OR OBSTRUCTIONS TO VISIBILITY.

OHZ001>008-015>018-024>027-034-035-043-044-221300-
   NORTHWEST OHIO

CITY           SKY/WX    TMP DP  RH WIND       PRES   REMARKS
DEFIANCE       SUNNY     68  63  84 CALM      30.13R
FINDLAY        SUNNY     69  65  86 S6        30.12S FOG
TOLEDO EXPRESS SUNNY     68  62  81 CALM      30.12R
TOLEDO EXEC    SUNNY     70  60  70 CALM      30.13R
LIMA           SUNNY     71  66  84 S3        30.13S HAZE
$$

OHZ009>014-019>023-028>033-038-089-221300-
   NORTHEAST OHIO

CITY           SKY/WX    TMP DP  RH WIND       PRES   REMARKS
CLE-HOPKINS    SUNNY     69  64  84 SW3       30.15S
CLE-LAKEFRONT  SUNNY     73  64  73 S9        30.12R
CUY CO. ARPT   SUNNY     73  68  83 S8        30.15R
LORAIN-ELYRIA  SUNNY     72  64  76 S5        30.14S
ASHTABULA      SUNNY     68  65  90 CALM      30.16R FOG
AKRON-CANTON   SUNNY     71  66  84 CALM      30.17R HAZE
WOOSTER        SUNNY     67  64  90 CALM      30.17R FOG
MANSFIELD      SUNNY     70  66  87 CALM      30.17R
YOUNGSTOWN     SUNNY     71  68  90 CALM      30.16R FOG
$$

OHZ042-051>053-060>062-070>072-077>081-221300-
  SOUTHWEST OHIO

CITY           SKY/WX    TMP DP  RH WIND       PRES   REMARKS
CINC-COVINGTON MOSUNNY   73  69  87 CALM      30.14R FOG
CINC-LUNKEN    SUNNY     70  68  93 CALM      30.13R FOG
HAMILTON       MOSUNNY   69  67  93 CALM      30.14R FOG
DAYTON         MOSUNNY   72  66  81 SE3       30.15S
WRIGHT-PAT AFB SUNNY     68  66  94 CALM      30.14R
DAYTON GENERAL SUNNY     70  66  87 NE3       30.13S
WILMINGTON     SUNNY     70  66  87 NE3       30.14R FOG
$$

OHZ036-037-039>041-045>050-054>059-063>069-073>076-082>088-221300-
  CENTRAL AND SOUTHEAST OHIO

CITY           SKY/WX    TMP DP  RH WIND       PRES   REMARKS
COLUMBUS       SUNNY     75  68  78 CALM      30.14R HAZE
OSU AIRPORT    SUNNY     72  69  90 CALM      30.14R FOG
BOLTON FIELD   SUNNY     70  70 100 CALM      30.15R FOG
RICKENBACK AFB SUNNY     71  66  83 CALM      30.14R HAZE
NEWARK         SUNNY     69  67  93 CALM      30.15R FOG
MARION         SUNNY     70  64  81 SE7       30.15R HAZE
LANCASTER      SUNNY     69  67  93 CALM      30.15R FOG
ZANESVILLE     FOG       68  66  93 CALM      30.16R VSB 1
NEW PHILLY     SUNNY     67  66  97 CALM      30.16R FOG
$$



USA.gov is the U.S. government's official web portal to all federal, state and local government web resources and services.